Time[GMT],air_temperature[C](-3m),wind_speed[m/s](-4m),wind_gust[m/s](-4m),barometric_pressure[millibars](-3m),wind_2_direction[degrees_true](-4m),wind_2_gust[m/s](-4m),wind_2_gust_1s[m/s](-4m),wind_2_min[m/s](-4m),wind_2_percent_good[1](-4m),wind_2_speed[m/s](-4m),wind_direction[degrees_true](-4m),wind_gust_1s[m/s](-4m),wind_min[m/s](-4m)
2020-04-10 16:00,27.7,,,1014.18,117.10,3.50,4.24,0.82,1.00,2.47,,,
2020-04-10 17:00,27.9,,,1013.76,129.20,3.53,3.99,1.06,1.00,2.69,,,
2020-04-10 18:00,28.0,,,1013.28,112.90,3.36,4.13,0.98,1.00,2.72,,,
2020-04-10 19:00,28.3,,,1012.50,121.80,5.75,6.35,3.08,1.00,4.29,,,
2020-04-10 20:00,28.2,,,1012.14,131.00,5.80,6.64,3.19,1.00,4.97,,,
2020-04-10 21:00,28.1,,,1012.14,133.10,6.21,7.09,3.26,1.00,5.15,,,
2020-04-10 22:00,28.0,,,1012.62,133.60,5.87,7.04,3.05,1.00,4.80,,,
2020-04-10 23:00,27.8,,,1013.28,140.30,5.24,6.32,2.26,1.00,4.28,,,
2020-04-11 00:00,27.8,,,1014.06,133.90,4.07,4.82,1.48,1.00,3.36,,,
2020-04-11 01:00,27.8,,,1014.54,137.80,4.23,5.36,1.92,1.00,3.48,,,
2020-04-11 02:00,27.7,,,1014.60,133.50,3.93,4.62,1.19,1.00,3.09,,,
2020-04-11 03:00,27.6,,,1014.60,126.10,3.99,4.94,1.47,1.00,3.31,,,
2020-04-11 04:00,27.4,,,1013.88,125.40,4.47,4.87,1.72,1.00,3.52,,,
2020-04-11 05:00,27.2,,,1013.28,127.00,3.61,4.32,1.19,1.00,3.09,,,
2020-04-11 06:00,27.2,,,1012.92,132.00,4.11,4.90,1.77,1.00,3.17,,,
2020-04-11 07:00,27.1,,,1012.80,146.80,5.01,5.32,2.14,1.00,4.01,,,
2020-04-11 08:00,27.1,,,1012.80,141.20,4.86,5.55,2.14,1.00,3.46,,,
2020-04-11 09:00,27.2,,,1013.52,139.80,3.51,4.16,1.55,1.00,2.82,,,
2020-04-11 10:00,27.3,,,1014.30,137.70,4.68,5.43,2.12,1.00,3.86,,,
2020-04-11 11:00,27.4,,,1015.14,117.90,3.67,4.14,1.28,1.00,2.92,,,
2020-04-11 12:00,27.7,,,1016.04,112.60,3.42,4.06,1.42,1.00,2.66,,,
2020-04-11 13:00,28.0,,,1016.70,129.40,3.39,4.12,1.43,1.00,2.66,,,
2020-04-11 14:00,28.0,,,1016.82,124.70,2.81,3.44,0.90,1.00,2.10,,,
2020-04-11 15:00,27.9,,,1016.82,123.20,3.08,3.53,0.62,1.00,2.26,,,
2020-04-11 16:00,28.1,,,1016.58,94.50,2.10,2.54,0.23,1.00,1.50,,,
2020-04-11 17:00,28.0,,,1015.92,115.60,3.62,4.26,0.66,1.00,2.74,,,
2020-04-11 18:00,28.2,,,1015.08,119.20,2.70,3.18,0.70,1.00,2.28,,,
2020-04-11 19:00,28.3,,,1014.18,122.70,4.33,4.88,2.46,1.00,3.60,,,
2020-04-11 20:00,28.5,,,1013.88,104.20,4.22,4.49,2.27,1.00,3.62,,,
2020-04-11 21:00,28.5,,,1013.82,100.90,4.49,5.12,2.58,1.00,3.95,,,
2020-04-11 22:00,28.2,,,1014.48,82.30,4.89,5.43,2.16,1.00,3.83,,,
2020-04-11 23:00,28.0,,,1015.26,72.60,5.28,6.09,2.81,1.00,4.42,,,
2020-04-12 00:00,28.0,,,1015.62,72.60,5.04,5.81,2.15,1.00,3.90,,,
2020-04-12 01:00,27.9,,,1015.80,97.90,5.84,6.65,3.24,1.00,4.90,,,
2020-04-12 02:00,27.9,,,1016.46,78.40,6.10,6.90,3.19,1.00,5.06,,,
2020-04-12 03:00,27.8,,,1016.40,79.80,6.64,7.92,2.91,1.00,5.28,,,
2020-04-12 04:00,27.8,,,1015.98,92.30,6.29,7.28,2.72,1.00,5.31,,,
2020-04-12 05:00,27.6,,,1015.44,88.00,6.71,7.69,3.34,1.00,5.73,,,
2020-04-12 06:00,27.6,,,1015.08,79.80,7.93,8.50,4.20,1.00,6.29,,,
2020-04-12 07:00,27.5,,,1014.78,90.70,7.75,8.76,3.48,1.00,6.79,,,
2020-04-12 08:00,27.5,,,1015.38,89.70,7.15,7.99,3.52,1.00,6.07,,,
2020-04-12 09:00,27.5,,,1015.92,92.70,7.24,8.48,3.25,1.00,6.02,,,
2020-04-12 10:00,27.5,,,1016.52,93.90,6.99,8.06,3.41,1.00,5.60,,,
2020-04-12 11:00,27.7,,,1017.30,85.40,7.38,8.52,3.66,1.00,5.96,,,
2020-04-12 12:00,27.8,,,1018.02,87.80,6.34,7.36,3.05,1.00,5.53,,,
2020-04-12 13:00,27.9,,,1018.62,88.10,6.05,7.17,3.24,1.00,5.17,,,
2020-04-12 14:00,27.8,,,1018.86,96.90,6.99,8.31,3.11,1.00,5.97,,,
2020-04-12 15:00,27.8,,,1018.80,93.20,6.19,7.11,3.09,1.00,5.27,,,
2020-04-12 16:00,28.0,,,1018.26,93.70,4.84,5.71,1.72,1.00,4.08,,,
2020-04-12 17:00,28.0,,,1017.84,106.10,6.08,6.61,3.37,1.00,4.93,,,
2020-04-12 18:00,28.0,,,1016.88,103.30,5.85,6.98,2.73,1.00,5.14,,,
2020-04-12 19:00,28.0,,,1017.00,96.40,4.75,5.54,2.32,1.00,3.95,,,
2020-04-12 20:00,28.1,,,1016.40,85.40,5.93,6.34,2.46,1.00,4.68,,,
2020-04-12 21:00,28.2,,,1016.52,84.30,5.96,7.03,2.95,1.00,5.01,,,
2020-04-12 22:00,28.0,,,1017.06,76.90,5.39,6.36,2.44,1.00,4.32,,,
2020-04-12 23:00,27.8,,,1017.36,75.50,6.26,7.35,3.28,1.00,5.21,,,
2020-04-13 00:00,27.8,,,1017.90,57.53,7.30,8.32,4.09,1.00,6.05,,,
2020-04-13 01:00,27.7,,,1018.26,51.48,7.79,8.81,3.89,1.00,6.38,,,
2020-04-13 02:00,27.6,,,1018.86,44.53,7.86,8.40,4.31,1.00,6.66,,,
2020-04-13 03:00,27.6,,,1018.92,49.63,8.31,9.84,4.77,1.00,7.26,,,
2020-04-13 04:00,27.2,,,1018.32,55.70,9.15,10.45,4.35,1.00,7.60,,,
2020-04-13 05:00,27.4,,,1017.12,55.90,9.12,10.25,4.93,1.00,7.24,,,
2020-04-13 06:00,27.3,,,1016.34,63.51,7.57,8.96,3.68,1.00,6.30,,,
2020-04-13 07:00,27.2,,,1016.04,59.68,9.75,10.30,5.22,1.00,7.93,,,
2020-04-13 08:00,27.3,,,1015.98,55.76,9.42,11.20,5.65,1.00,7.49,,,
2020-04-13 09:00,27.3,,,1016.16,59.62,9.61,10.25,4.77,1.00,7.98,,,
2020-04-13 10:00,27.3,,,1017.06,53.70,10.06,11.31,4.59,1.00,8.08,,,
2020-04-13 11:00,27.4,,,1017.36,64.25,9.29,10.50,5.24,1.00,8.21,,,
2020-04-13 12:00,27.5,,,1017.78,74.10,9.48,10.41,5.01,1.00,8.10,,,
2020-04-13 13:00,27.8,,,1018.38,71.50,9.55,10.49,5.35,1.00,7.74,,,
2020-04-13 14:00,27.6,,,1018.80,68.90,11.14,12.04,5.14,1.00,8.61,,,
2020-04-13 15:00,27.7,,,1018.56,71.50,10.00,11.66,5.00,1.00,8.20,,,
2020-04-13 16:00,27.8,,,1018.26,83.50,9.43,10.23,5.64,1.00,7.88,,,
2020-04-13 17:00,27.9,,,1017.78,85.60,9.08,10.64,4.63,1.00,7.50,,,
2020-04-13 18:00,27.8,,,1016.82,81.50,8.59,9.73,3.66,1.00,7.11,,,
2020-04-13 19:00,27.8,,,1016.16,84.10,7.66,8.75,3.51,1.00,6.20,,,
2020-04-13 20:00,27.8,,,1016.16,80.00,7.45,8.75,3.83,1.00,6.53,,,
2020-04-13 21:00,27.9,,,1016.22,77.90,7.48,8.60,3.91,1.00,6.14,,,
2020-04-13 22:00,27.7,,,1016.52,76.70,7.74,9.08,4.04,1.00,6.53,,,
2020-04-13 23:00,27.6,,,1017.18,67.40,7.66,8.87,4.04,1.00,6.33,,,
2020-04-14 00:00,27.6,,,1017.48,73.20,7.25,8.09,3.55,1.00,6.25,,,
2020-04-14 01:00,27.0,,,1018.26,57.16,6.47,7.52,2.47,1.00,5.01,,,
2020-04-14 02:00,27.5,,,1018.38,65.54,8.87,9.95,4.81,1.00,7.45,,,
2020-04-14 03:00,27.5,,,1018.38,62.65,8.38,9.15,3.94,1.00,6.59,,,
2020-04-14 04:00,27.4,,,1017.96,62.15,8.60,9.30,3.89,1.00,6.94,,,
2020-04-14 05:00,27.3,,,1017.30,52.36,8.51,9.64,4.89,1.00,7.33,,,
2020-04-14 06:00,26.9,,,1016.58,61.72,7.66,8.62,3.74,1.00,6.19,,,
2020-04-14 07:00,27.2,,,1015.86,58.03,11.47,13.11,5.38,1.00,8.46,,,
2020-04-14 08:00,27.1,,,1015.68,66.18,10.21,11.41,5.10,1.00,8.76,,,
2020-04-14 09:00,27.0,,,1015.74,66.80,10.48,11.60,5.27,1.00,8.72,,,
2020-04-14 10:00,27.0,,,1016.10,73.10,11.13,12.43,6.07,1.00,8.97,,,
2020-04-14 11:00,27.2,,,1016.70,73.70,9.11,10.18,4.73,1.00,7.51,,,
2020-04-14 12:00,27.2,,,1017.12,71.70,9.02,10.80,4.17,1.00,6.93,,,
2020-04-14 13:00,27.3,,,1017.30,76.90,8.70,10.22,4.33,1.00,7.07,,,
2020-04-14 14:00,27.3,,,1017.36,68.10,8.95,9.96,4.48,1.00,7.01,,,
2020-04-14 15:00,27.4,,,1017.06,74.60,9.31,10.21,5.04,1.00,7.67,,,
2020-04-14 16:00,27.4,,,1016.34,73.80,9.30,10.61,5.15,1.00,7.83,,,
2020-04-14 17:00,27.4,,,1016.04,80.20,8.66,10.01,4.70,1.00,7.30,,,
2020-04-14 18:00,27.5,,,1015.32,72.20,8.56,10.02,3.82,1.00,7.06,,,
2020-04-14 19:00,27.5,,,1014.54,74.30,9.01,10.19,4.08,1.00,6.82,,,
2020-04-14 20:00,27.6,,,1014.36,73.10,7.98,9.08,4.30,1.00,6.64,,,
2020-04-14 21:00,27.6,,,1014.24,72.70,8.81,10.07,3.53,1.00,7.12,,,
2020-04-14 22:00,27.5,,,1014.54,69.10,8.89,9.87,4.76,1.00,7.40,,,
2020-04-14 23:00,27.4,,,1015.02,74.30,8.46,9.47,4.79,1.00,7.38,,,
2020-04-15 00:00,27.5,,,1015.50,70.90,8.14,9.45,3.85,1.00,6.36,,,
2020-04-15 01:00,27.5,,,1015.98,79.70,7.66,8.84,3.37,1.00,6.50,,,
2020-04-15 02:00,27.4,,,1016.28,71.70,8.64,10.31,4.26,1.00,6.92,,,
2020-04-15 03:00,27.3,,,1016.52,65.00,8.77,9.55,4.08,1.00,6.71,,,
2020-04-15 04:00,27.3,,,1016.16,59.02,7.80,8.78,3.94,1.00,6.10,,,
2020-04-15 05:00,27.3,,,1015.38,73.20,8.29,9.19,3.67,1.00,6.84,,,
2020-04-15 06:00,27.1,,,1014.66,73.40,8.68,9.75,3.90,1.00,6.90,,,
2020-04-15 07:00,27.0,,,1014.24,65.32,8.45,9.82,4.45,1.00,7.23,,,
2020-04-15 08:00,27.0,,,1014.24,66.50,8.91,9.48,4.38,1.00,6.92,,,
2020-04-15 09:00,27.1,,,1014.42,64.02,7.98,9.15,4.66,1.00,6.78,,,
2020-04-15 10:00,27.2,,,1014.84,74.40,9.26,9.85,4.31,1.00,7.11,,,
2020-04-15 11:00,27.3,,,1015.20,72.10,8.85,9.86,3.72,1.00,7.02,,,
2020-04-15 12:00,27.4,,,1015.62,87.40,9.17,10.66,4.21,1.00,7.75,,,
2020-04-15 13:00,27.3,,,1016.04,92.10,9.40,10.03,4.40,1.00,7.22,,,
2020-04-15 14:00,27.5,,,1016.34,85.10,8.86,9.74,4.58,1.00,7.84,,,
2020-04-15 15:00,27.1,,,1016.28,76.00,8.78,9.72,4.74,1.00,7.75,,,
2020-04-15 16:00,27.3,,,1015.80,90.40,7.33,8.85,3.45,1.00,6.57,,,
2020-04-15 17:00,27.5,,,1015.32,87.10,8.04,8.94,3.81,1.00,6.45,,,
2020-04-15 18:00,27.7,,,1014.72,83.10,7.73,8.74,4.06,1.00,6.57,,,
2020-04-15 19:00,27.6,,,1014.00,79.00,7.69,8.70,3.60,1.00,6.55,,,
2020-04-15 20:00,27.6,,,1013.88,72.50,7.81,8.86,4.01,1.00,6.28,,,
2020-04-15 21:00,27.6,,,1014.18,75.70,7.66,8.90,4.01,1.00,6.21,,,
2020-04-15 22:00,27.5,,,1014.60,72.30,7.71,9.11,4.12,1.00,6.41,,,
2020-04-15 23:00,27.3,,,1015.14,72.10,7.15,8.69,3.59,1.00,6.24,,,
2020-04-16 00:00,27.3,,,1015.56,73.10,8.37,9.08,3.67,1.00,6.63,,,
2020-04-16 01:00,27.3,,,1016.04,73.10,8.19,8.84,3.24,1.00,6.51,,,
2020-04-16 02:00,27.3,,,1016.64,77.90,8.06,9.00,4.39,1.00,7.01,,,
2020-04-16 03:00,27.3,,,1016.82,68.80,7.81,8.95,3.80,1.00,6.37,,,
2020-04-16 04:00,27.2,,,1016.58,60.10,7.58,8.19,3.34,1.00,5.86,,,
2020-04-16 05:00,27.2,,,1016.10,79.80,7.26,8.41,3.32,1.00,5.89,,,
2020-04-16 06:00,27.1,,,1015.62,82.90,7.06,8.44,2.95,1.00,5.56,,,
2020-04-16 07:00,27.0,,,1015.26,78.70,7.61,8.98,3.76,1.00,6.12,,,
2020-04-16 08:00,27.0,,,1015.26,79.20,7.15,8.53,3.64,1.00,6.14,,,
2020-04-16 09:00,27.0,,,1015.80,71.90,7.39,8.44,3.54,1.00,5.96,,,
2020-04-16 10:00,27.1,,,1016.34,72.00,6.76,7.58,3.31,1.00,5.87,,,
2020-04-16 11:00,27.2,,,1016.88,70.80,8.59,9.42,5.00,1.00,7.05,,,
2020-04-16 12:00,27.2,,,1017.60,88.40,8.72,9.45,4.03,1.00,7.26,,,
2020-04-16 13:00,27.4,,,1018.20,92.70,7.40,8.88,3.18,1.00,6.29,,,
2020-04-16 14:00,27.4,,,1018.32,87.60,7.90,9.23,3.29,1.00,6.68,,,
2020-04-16 15:00,27.4,,,1018.14,97.90,8.28,9.46,4.10,1.00,6.99,,,
2020-04-16 16:00,27.6,,,1017.66,99.50,8.84,9.61,4.06,1.00,7.02,,,
2020-04-16 17:00,27.6,,,1017.06,96.40,8.06,8.93,4.66,1.00,6.75,,,
2020-04-16 18:00,27.6,,,1016.58,92.50,7.24,8.46,3.83,1.00,6.31,,,
2020-04-16 19:00,27.6,,,1015.86,99.40,7.68,8.79,3.82,1.00,6.34,,,
2020-04-16 20:00,27.5,,,1015.44,95.10,7.62,8.94,3.48,1.00,5.91,,,
2020-04-16 21:00,27.5,,,1015.32,79.60,6.68,7.86,3.53,1.00,5.38,,,
2020-04-16 22:00,27.4,,,1015.80,88.70,6.97,7.76,3.28,1.00,5.84,,,
2020-04-16 23:00,27.4,,,1016.46,87.20,6.57,7.66,3.46,1.00,5.64,,,
2020-04-17 00:00,27.5,,,1017.12,89.60,7.14,8.24,3.35,1.00,5.98,,,
2020-04-17 01:00,27.4,,,1017.60,85.60,7.24,8.38,3.80,1.00,6.24,,,
2020-04-17 02:00,27.4,,,1018.02,84.90,7.42,8.60,3.55,1.00,6.11,,,
2020-04-17 03:00,27.2,,,1018.14,85.00,8.37,9.33,3.59,1.00,6.66,,,
2020-04-17 04:00,27.0,,,1017.96,84.00,6.89,8.11,3.24,1.00,5.42,,,
2020-04-17 05:00,27.0,,,1017.24,78.70,6.89,7.65,3.37,1.00,5.70,,,
2020-04-17 06:00,27.1,,,1016.82,76.10,7.40,8.46,4.03,1.00,6.16,,,
2020-04-17 07:00,27.0,,,1016.28,75.80,6.97,7.83,3.55,1.00,5.85,,,
2020-04-17 08:00,27.0,,,1016.16,72.10,7.21,8.03,3.42,1.00,5.94,,,
2020-04-17 09:00,27.0,,,1016.76,70.00,8.09,8.68,3.78,1.00,6.39,,,
2020-04-17 10:00,27.0,,,1017.42,71.70,7.75,8.82,4.00,1.00,6.44,,,
2020-04-17 11:00,27.2,,,1018.02,76.50,7.92,9.11,3.68,1.00,6.33,,,
2020-04-17 12:00,27.2,,,1018.44,78.20,7.59,8.79,3.83,1.00,5.97,,,
2020-04-17 13:00,27.4,,,1018.98,84.90,6.57,7.58,2.72,1.00,5.11,,,
2020-04-17 14:00,27.3,,,1019.04,75.40,7.20,8.41,3.21,1.00,6.15,,,
2020-04-17 15:00,27.4,,,1018.92,80.50,6.98,8.17,3.37,1.00,5.62,,,
2020-04-17 16:00,27.4,,,1018.62,88.00,6.99,8.51,3.75,1.00,5.83,,,
2020-04-17 17:00,27.4,,,1017.90,83.20,6.38,7.56,2.48,1.00,5.33,,,
2020-04-17 18:00,27.4,,,1017.00,81.60,7.38,7.94,2.75,1.00,5.46,,,
2020-04-17 19:00,27.4,,,1016.34,79.40,6.68,7.74,3.34,1.00,5.22,,,
2020-04-17 20:00,27.5,,,1016.04,80.50,6.86,8.15,2.61,1.00,5.37,,,
2020-04-17 21:00,27.6,,,1016.16,78.90,6.57,7.32,3.05,1.00,5.40,,,
2020-04-17 22:00,27.5,,,1016.46,71.50,7.46,8.51,3.93,1.00,6.03,,,
2020-04-17 23:00,27.3,,,1017.30,65.61,7.40,8.49,4.08,1.00,5.84,,,
2020-04-18 00:00,27.3,,,1017.90,62.01,7.11,7.85,3.09,1.00,5.78,,,
2020-04-18 01:00,27.3,,,1018.20,61.85,8.15,9.27,4.69,1.00,6.62,,,
2020-04-18 02:00,27.2,,,1018.26,73.40,8.74,10.10,4.37,1.00,7.06,,,
2020-04-18 03:00,27.2,,,1018.14,64.69,7.96,9.31,4.26,1.00,6.74,,,
2020-04-18 04:00,27.1,,,1017.72,63.52,7.27,8.50,3.44,1.00,6.32,,,
2020-04-18 05:00,27.1,,,1017.12,64.82,7.62,8.20,3.06,1.00,5.94,,,
2020-04-18 06:00,27.0,,,1016.52,72.00,9.20,10.60,4.60,1.00,7.66,,,
2020-04-18 07:00,27.1,,,1016.28,81.50,8.06,9.36,3.51,1.00,6.58,,,
2020-04-18 08:00,27.0,,,1016.22,75.10,8.59,9.57,3.90,1.00,6.96,,,
2020-04-18 09:00,27.0,,,1016.40,63.22,8.08,9.50,4.11,1.00,6.45,,,
2020-04-18 10:00,27.0,,,1016.58,84.80,7.57,8.65,3.61,1.00,5.88,,,
2020-04-18 11:00,27.4,,,1016.94,98.80,7.63,8.62,4.01,1.00,6.57,,,
2020-04-18 12:00,27.4,,,1017.30,88.00,8.09,9.37,3.81,1.00,6.56,,,
2020-04-18 13:00,27.5,,,1017.84,94.60,7.58,8.81,3.95,1.00,6.30,,,
2020-04-18 14:00,27.6,,,1018.14,89.20,7.85,8.43,2.66,1.00,5.92,,,
2020-04-18 15:00,27.7,,,1018.14,94.70,6.43,7.58,3.33,1.00,5.11,,,
2020-04-18 16:00,27.4,,,1017.66,89.10,5.56,6.52,2.24,1.00,4.55,,,
2020-04-18 17:00,27.8,,,1016.94,101.20,6.94,7.72,3.60,1.00,5.78,,,
2020-04-18 18:00,27.9,,,1016.16,97.60,6.57,7.76,3.15,1.00,5.36,,,
2020-04-18 19:00,27.9,,,1015.56,91.00,7.37,8.16,3.31,1.00,5.74,,,
2020-04-18 20:00,28.0,,,1015.20,93.40,6.67,7.93,3.44,1.00,5.41,,,
2020-04-18 21:00,28.0,,,1015.20,95.30,7.08,8.92,3.33,1.00,5.76,,,
2020-04-18 22:00,27.5,,,1015.50,81.50,7.33,8.05,3.45,1.00,5.97,,,
2020-04-18 23:00,27.2,,,1015.86,75.00,7.21,7.91,3.81,1.00,6.13,,,
2020-04-19 00:00,27.5,,,1016.52,80.80,8.06,9.42,3.44,1.00,6.17,,,
2020-04-19 01:00,27.5,,,1016.88,82.20,7.54,8.96,3.92,1.00,6.31,,,
2020-04-19 02:00,27.6,,,1017.12,93.70,9.29,10.03,3.98,1.00,6.79,,,
2020-04-19 03:00,27.6,,,1016.94,88.20,8.28,9.32,4.10,1.00,6.89,,,
2020-04-19 04:00,27.5,,,1016.70,90.20,8.46,9.59,3.95,1.00,7.15,,,
2020-04-19 05:00,27.4,,,1016.46,88.80,7.50,8.27,2.90,1.00,6.07,,,
2020-04-19 06:00,27.3,,,1016.28,90.10,8.24,9.04,3.79,1.00,6.70,,,
2020-04-19 07:00,27.3,,,1016.16,89.00,7.45,8.60,3.11,1.00,6.35,,,
2020-04-19 08:00,27.2,,,1015.98,91.30,7.27,8.67,3.93,1.00,5.95,,,
2020-04-19 09:00,27.1,,,1016.22,87.50,8.13,9.11,4.00,1.00,6.40,,,
2020-04-19 10:00,27.0,,,1016.58,78.60,8.34,9.15,4.09,1.00,6.69,,,
2020-04-19 11:00,27.3,,,1016.94,78.90,7.78,9.03,4.36,1.00,6.64,,,
2020-04-19 12:00,27.5,,,1017.30,84.40,7.72,8.88,3.31,1.00,6.25,,,
2020-04-19 13:00,27.4,,,1017.54,78.10,8.22,8.77,3.62,1.00,6.62,,,
2020-04-19 14:00,27.4,,,1017.90,82.50,7.63,8.48,4.03,1.00,6.44,,,
2020-04-19 15:00,27.4,,,1017.54,90.90,7.08,8.00,3.53,1.00,6.13,,,
2020-04-19 16:00,27.4,,,1017.06,93.00,7.59,8.59,3.45,1.00,6.23,,,
2020-04-19 17:00,27.5,,,1016.52,89.70,7.47,9.15,4.06,1.00,6.40,,,
2020-04-19 18:00,27.5,,,1016.04,82.30,6.91,7.68,3.13,1.00,5.76,,,
2020-04-19 19:00,27.6,,,1015.74,84.60,6.40,7.60,2.61,1.00,4.75,,,
2020-04-19 20:00,27.7,,,1015.20,86.90,6.28,7.01,2.86,1.00,4.97,,,
2020-04-19 21:00,27.7,,,1015.14,77.70,6.16,7.02,3.16,1.00,5.00,,,
2020-04-19 22:00,27.7,,,1015.26,78.00,7.13,8.17,3.58,1.00,5.74,,,
2020-04-19 23:00,27.5,,,1015.74,78.20,7.35,8.40,3.48,1.00,5.88,,,
2020-04-20 00:00,27.4,,,1016.16,64.94,8.44,9.06,3.46,1.00,6.36,,,
2020-04-20 01:00,27.4,,,1016.52,71.40,7.90,9.02,4.45,1.00,6.14,,,
2020-04-20 02:00,27.4,,,1016.64,74.40,9.01,9.64,4.64,1.00,7.14,,,
2020-04-20 03:00,27.3,,,1016.58,87.50,8.31,8.97,3.64,1.00,6.79,,,
2020-04-20 04:00,27.3,,,1016.10,82.30,8.65,9.81,4.48,1.00,7.19,,,
2020-04-20 05:00,27.1,,,1015.56,83.10,8.03,9.37,4.45,1.00,6.95,,,
2020-04-20 06:00,27.1,,,1015.20,81.40,8.00,8.94,3.98,1.00,6.65,,,
2020-04-20 07:00,27.1,,,1014.54,77.80,6.82,7.70,3.44,1.00,5.49,,,
2020-04-20 08:00,26.7,,,1014.54,73.30,9.41,10.90,5.13,1.00,7.85,,,
2020-04-20 09:00,26.6,,,1014.78,65.84,6.85,7.81,3.42,1.00,5.60,,,
2020-04-20 10:00,27.1,,,1015.26,80.40,9.56,10.33,4.65,1.00,7.52,,,
2020-04-20 11:00,26.9,,,1015.68,84.90,6.83,7.91,3.67,1.00,6.12,,,
2020-04-20 12:00,26.5,,,1016.34,130.70,8.16,9.44,2.78,1.00,6.47,,,
2020-04-20 13:00,25.2,,,1017.06,105.70,10.66,11.97,4.76,1.00,8.58,,,
2020-04-20 14:00,27.2,,,1017.12,111.30,8.89,10.90,4.81,1.00,7.12,,,
2020-04-20 15:00,27.0,,,1017.30,116.70,6.79,8.12,3.44,1.00,5.73,,,
2020-04-20 16:00,27.6,,,1016.94,108.10,8.60,9.57,3.77,1.00,6.76,,,
2020-04-20 17:00,27.5,,,1016.46,114.60,7.40,8.49,4.29,1.00,6.25,,,
2020-04-20 18:00,27.4,,,1015.86,119.40,6.42,7.78,2.50,1.00,4.94,,,
2020-04-20 19:00,27.5,,,1015.20,103.90,5.55,6.29,1.57,1.00,4.22,,,
2020-04-20 20:00,27.6,,,1014.78,105.60,5.34,6.03,2.10,1.00,3.99,,,
2020-04-20 21:00,28.1,,,1014.60,109.00,6.24,7.18,3.08,1.00,5.32,,,
2020-04-20 22:00,28.0,,,1014.72,100.70,7.31,8.42,3.64,1.00,5.88,,,
2020-04-20 23:00,27.8,,,1015.50,102.50,6.79,7.80,2.92,1.00,5.68,,,
2020-04-21 00:00,27.6,,,1016.28,86.90,5.85,6.77,2.64,1.00,4.82,,,
2020-04-21 01:00,27.6,,,1016.94,77.00,7.24,8.26,3.58,1.00,5.90,,,
2020-04-21 02:00,27.6,,,1016.88,88.30,9.37,10.88,5.15,1.00,7.96,,,
2020-04-21 03:00,27.5,,,1016.94,90.80,9.83,10.48,4.53,1.00,7.91,,,
2020-04-21 04:00,27.4,,,1016.76,87.80,8.86,10.12,4.41,1.00,7.49,,,
2020-04-21 05:00,27.4,,,1016.34,92.70,9.52,10.57,4.65,1.00,7.89,,,
2020-04-21 06:00,27.4,,,1015.62,95.20,8.31,9.37,3.71,1.00,6.61,,,
2020-04-21 07:00,27.0,,,1015.02,103.50,9.98,10.88,5.13,1.00,7.54,,,
2020-04-21 08:00,27.2,,,1014.78,91.80,8.72,9.93,4.29,1.00,6.79,,,
2020-04-21 09:00,27.2,,,1014.90,113.10,9.73,10.69,4.41,1.00,7.54,,,
2020-04-21 10:00,27.3,,,1014.96,101.50,10.16,11.52,4.78,1.00,7.93,,,
2020-04-21 11:00,27.4,,,1015.26,111.60,9.24,10.29,5.19,1.00,8.03,,,
2020-04-21 12:00,27.6,,,1016.16,110.80,7.49,8.43,3.59,1.00,5.87,,,
2020-04-21 13:00,27.6,,,1016.82,100.50,7.70,8.60,3.50,1.00,6.22,,,
2020-04-21 14:00,27.7,,,1017.24,102.20,7.44,8.96,4.14,1.00,6.76,,,
2020-04-21 15:00,27.8,,,1017.00,108.10,7.91,8.93,4.09,1.00,6.66,,,
2020-04-21 16:00,27.7,,,1016.52,102.00,7.90,9.09,3.62,1.00,6.55,,,
2020-04-21 17:00,27.8,,,1015.50,115.60,8.58,9.24,3.74,1.00,6.65,,,
2020-04-21 18:00,27.8,,,1014.36,120.30,8.11,9.77,4.60,1.00,7.04,,,
2020-04-21 19:00,27.8,,,1013.70,116.90,7.41,8.42,3.55,1.00,6.21,,,
2020-04-21 20:00,27.8,,,1013.58,124.00,6.09,7.22,1.50,1.00,4.61,,,
2020-04-21 21:00,27.9,,,1013.52,108.60,6.49,7.53,3.40,1.00,5.03,,,
2020-04-21 22:00,27.8,,,1013.94,103.60,6.48,7.34,3.63,1.00,5.70,,,
2020-04-21 23:00,27.7,,,1014.66,116.80,4.66,5.74,1.89,1.00,3.91,,,
2020-04-22 00:00,27.6,,,1015.32,105.80,5.70,6.38,2.71,1.00,4.89,,,
2020-04-22 01:00,27.6,,,1016.16,95.20,4.77,5.77,1.63,1.00,3.87,,,
2020-04-22 02:00,26.7,,,1016.64,75.70,7.47,8.46,4.19,1.00,6.13,,,
2020-04-22 03:00,26.5,,,1016.58,118.40,4.99,6.14,1.24,1.00,3.88,,,
2020-04-22 04:00,27.4,,,1016.04,94.30,4.24,5.22,1.80,1.00,3.45,,,
2020-04-22 05:00,27.0,,,1015.20,90.30,8.66,9.60,3.27,1.00,6.09,,,
2020-04-22 06:00,26.9,,,1014.60,99.90,8.12,9.16,4.25,1.00,6.84,,,
2020-04-22 07:00,27.1,,,1014.00,115.10,6.91,8.23,3.51,1.00,5.87,,,
2020-04-22 08:00,26.8,,,1014.00,110.90,7.96,9.40,4.17,1.00,6.23,,,
2020-04-22 09:00,27.2,,,1014.18,132.20,5.86,6.96,2.63,1.00,4.83,,,
2020-04-22 10:00,27.6,,,1014.42,122.20,8.27,8.79,3.94,1.00,6.25,,,
2020-04-22 11:00,27.6,,,1015.20,116.10,7.78,8.91,4.03,1.00,6.48,,,
2020-04-22 12:00,27.7,,,1015.92,120.20,6.52,7.38,2.47,1.00,5.51,,,
2020-04-22 13:00,27.8,,,1016.28,115.10,5.69,7.12,2.70,1.00,4.78,,,
2020-04-22 14:00,27.9,,,1016.58,110.10,6.14,7.60,2.71,1.00,4.99,,,
2020-04-22 15:00,27.7,,,1016.22,109.30,5.60,6.61,2.92,1.00,4.94,,,
2020-04-22 16:00,28.0,,,1015.74,126.20,6.36,7.44,3.32,1.00,5.49,,,
2020-04-22 17:00,28.1,,,1015.32,122.80,5.21,6.72,1.61,1.00,4.15,,,
2020-04-22 18:00,27.7,,,1014.60,105.10,6.09,6.73,3.23,1.00,5.05,,,
2020-04-22 19:00,27.9,,,1014.00,114.90,5.01,5.93,1.86,1.00,4.04,,,
2020-04-22 20:00,28.0,,,1013.70,105.50,5.71,6.57,2.79,1.00,4.86,,,
2020-04-22 21:00,28.0,,,1013.64,79.00,5.89,6.62,2.22,1.00,5.03,,,
2020-04-22 22:00,27.6,,,1014.42,92.30,6.43,7.35,3.18,1.00,5.20,,,
2020-04-22 23:00,27.4,,,1014.90,85.70,5.14,6.18,2.80,1.00,4.24,,,
2020-04-23 00:00,27.5,,,1015.50,75.60,5.31,6.24,2.68,1.00,4.35,,,
2020-04-23 01:00,27.6,,,1015.92,91.80,7.34,8.26,3.64,1.00,6.29,,,
2020-04-23 02:00,27.8,,,1016.28,83.00,7.03,8.06,3.43,1.00,5.89,,,
2020-04-23 03:00,28.1,,,1016.46,94.40,7.10,8.64,3.26,1.00,6.29,,,
2020-04-23 04:00,27.6,,,1015.86,76.40,7.31,8.46,3.33,1.00,5.91,,,
2020-04-23 05:00,27.5,,,1014.72,98.10,8.30,9.43,4.04,1.00,6.71,,,
2020-04-23 06:00,27.4,,,1014.48,95.10,7.09,8.38,3.42,1.00,5.81,,,
2020-04-23 07:00,27.4,,,1014.18,92.60,5.87,7.29,2.27,1.00,4.70,,,
2020-04-23 08:00,27.9,,,1014.48,98.30,7.62,8.28,3.74,1.00,6.45,,,
2020-04-23 09:00,27.5,,,1014.78,96.70,6.72,7.35,3.01,1.00,5.34,,,
2020-04-23 10:00,27.7,,,1015.02,108.40,6.29,7.33,2.70,1.00,5.54,,,
2020-04-23 11:00,27.3,,,1015.68,134.80,6.07,7.23,3.29,1.00,4.98,,,
2020-04-23 12:00,27.8,,,1016.28,119.00,7.68,9.48,3.37,1.00,6.49,,,
2020-04-23 13:00,27.9,,,1016.76,108.70,7.84,9.11,3.96,1.00,6.70,,,
2020-04-23 14:00,27.9,,,1017.06,110.30,7.96,9.11,3.33,1.00,5.82,,,
2020-04-23 15:00,27.9,,,1017.12,104.70,8.40,9.19,3.57,1.00,6.66,,,
2020-04-23 16:00,27.8,,,1016.76,108.30,6.68,8.21,3.72,1.00,5.82,,,
2020-04-23 17:00,28.0,,,1016.46,89.50,6.54,7.80,3.53,1.00,5.41,,,
2020-04-23 18:00,27.9,,,1015.62,86.30,7.34,8.75,3.61,1.00,6.03,,,
2020-04-23 19:00,26.7,,,1015.32,84.40,11.22,12.46,6.11,1.00,9.77,,,
2020-04-23 20:00,27.9,,,1015.02,105.80,6.89,7.62,2.69,1.00,5.08,,,
2020-04-23 21:00,27.4,,,1015.14,89.10,7.20,7.89,3.24,1.00,5.72,,,
2020-04-23 22:00,27.8,,,1015.44,80.00,6.78,8.06,3.34,1.00,5.53,,,
2020-04-23 23:00,27.5,,,1015.92,77.60,7.25,7.89,3.49,1.00,5.52,,,
2020-04-24 00:00,27.7,,,1016.46,62.83,7.60,8.37,4.04,1.00,5.98,,,
2020-04-24 01:00,27.7,,,1016.94,67.50,8.68,9.78,3.38,1.00,7.59,,,
2020-04-24 02:00,27.6,,,1017.12,75.20,9.46,10.30,3.59,1.00,7.31,,,
2020-04-24 03:00,27.6,,,1016.82,69.80,9.84,10.73,4.40,1.00,8.05,,,
2020-04-24 04:00,27.5,,,1016.52,76.80,9.44,10.05,5.12,1.00,7.69,,,
2020-04-24 05:00,27.4,,,1015.68,76.30,9.06,9.81,4.68,1.00,7.11,,,
2020-04-24 06:00,27.4,,,1015.02,72.00,10.22,11.90,5.38,1.00,8.86,,,
2020-04-24 07:00,27.3,,,1014.72,75.80,9.90,10.76,5.22,1.00,8.17,,,
2020-04-24 08:00,27.4,,,1014.90,77.80,9.25,11.14,4.41,1.00,7.78,,,
2020-04-24 09:00,27.2,,,1015.26,76.00,9.85,10.11,4.84,1.00,7.98,,,
2020-04-24 10:00,27.3,,,1015.74,74.80,9.07,10.12,3.89,1.00,7.39,,,
2020-04-24 11:00,26.9,,,1016.40,80.90,10.90,11.78,5.34,1.00,8.44,,,
2020-04-24 12:00,27.0,,,1016.76,69.80,10.60,11.98,5.37,1.00,8.71,,,
2020-04-24 13:00,27.0,,,1017.24,62.72,6.96,7.80,2.54,1.00,5.15,,,
2020-04-24 14:00,27.8,,,1017.42,89.00,10.18,11.96,5.50,1.00,8.53,,,
2020-04-24 15:00,27.8,,,1017.42,96.40,9.91,10.86,5.14,1.00,8.05,,,
2020-04-24 16:00,27.8,,,1017.12,92.60,9.48,10.48,4.61,1.00,7.99,,,
2020-04-24 17:00,27.8,,,1016.46,85.20,10.21,11.52,4.94,1.00,8.06,,,
2020-04-24 18:00,27.9,,,1015.74,92.10,8.74,10.16,4.22,1.00,7.69,,,
2020-04-24 19:00,27.8,,,1015.20,82.50,8.36,9.27,4.36,1.00,6.86,,,
2020-04-24 20:00,27.8,,,1014.84,80.60,8.29,9.33,2.90,1.00,6.90,,,
2020-04-24 21:00,27.8,,,1014.54,82.40,8.40,9.84,3.96,1.00,6.86,,,
2020-04-24 22:00,27.8,,,1014.42,87.10,8.87,9.67,4.92,1.00,7.48,,,
2020-04-24 23:00,27.7,,,1014.60,87.40,8.05,9.75,3.64,1.00,7.01,,,
2020-04-25 00:00,27.6,,,1015.26,83.70,8.92,9.85,3.40,1.00,7.05,,,
2020-04-25 01:00,27.6,,,1015.92,80.50,8.31,9.48,4.10,1.00,6.85,,,
2020-04-25 02:00,27.6,,,1016.58,86.10,8.97,10.10,4.90,1.00,7.38,,,
2020-04-25 03:00,27.6,,,1016.82,85.80,8.85,10.00,4.53,1.00,6.99,,,
2020-04-25 04:00,27.5,,,1016.58,85.20,9.09,10.01,3.86,1.00,7.12,,,
2020-04-25 05:00,27.4,,,1015.98,77.80,9.21,10.85,4.77,1.00,7.39,,,